This is the latest recevied weather packets stored in our database for station/object NY5V. If no packets are shown the sender has not sent any weather packets the latest 1 day(s).
| Time | Temp. | Humidity | Pressure | Rain* | Wind** | Luminosity | Snow |
|---|---|---|---|---|---|---|---|
| 1836274691 | 23.89° C | 89% | 1016.9 hPa | 0 mm | 0 m/s | 0 W/m² | - |
| 1836274543 | 24.44° C | 87% | 1017.1 hPa | 0 mm | 0 m/s | 0 W/m² | - |
| 1836274086 | 23.89° C | 91% | 1016.8 hPa | 0 mm | 0 m/s | 0 W/m² | - |
| 1778042569 | 25° C | 88% | 1008.3 hPa | 0 mm | 1.34 m/s, 35° | 0 W/m² | - |
| 1778041964 | 25° C | 87% | 1008.3 hPa | 0 mm | 0.89 m/s, 32° | 0 W/m² | - |
| 1778041361 | 25° C | 87% | 1008.4 hPa | 0 mm | 0 m/s | 0 W/m² | - |
| 1778040761 | 25° C | 87% | 1007.9 hPa | 0 mm | 1.34 m/s, 16° | 0 W/m² | - |
| 1778040156 | 25° C | 87% | 1007.6 hPa | 0 mm | 0 m/s | 0 W/m² | - |
| 1778039555 | 25° C | 87% | 1007.6 hPa | 0 mm | 0.89 m/s, 4° | 0 W/m² | - |
| 1778038955 | 25° C | 86% | 1007.2 hPa | 0 mm | 1.34 m/s, 357° | 0 W/m² | - |
| 1778038350 | 25° C | 86% | 1007.4 hPa | 0 mm | 0.89 m/s, 34° | 0 W/m² | - |
| 1778037749 | 25° C | 86% | 1007.1 hPa | 0 mm | 0 m/s | 0 W/m² | - |
| 1778037149 | 25.56° C | 86% | 1007.2 hPa | 0 mm | 0.45 m/s, 29° | 0 W/m² | - |
| 1778036544 | 25.56° C | 86% | 1007 hPa | 0 mm | 0 m/s | 0 W/m² | - |
| 1778035943 | 25.56° C | 85% | 1007 hPa | 0 mm | 0 m/s | 0 W/m² | - |
| 1778035343 | 25.56° C | 85% | 1007 hPa | 0 mm | 0 m/s | 0 W/m² | - |
| 1778034742 | 25.56° C | 85% | 1006.7 hPa | 0 mm | 1.34 m/s, 338° | 0 W/m² | - |
| 1778034137 | 25.56° C | 85% | 1006.5 hPa | 0 mm | 0 m/s | 0 W/m² | - |
| 1778033537 | 25.56° C | 84% | 1006.9 hPa | 0 mm | 0 m/s | 0 W/m² | - |
| 1778032932 | 26.11° C | 84% | 1006.8 hPa | 0 mm | 0 m/s | 0 W/m² | - |
| 1778032332 | 26.11° C | 83% | 1006.5 hPa | 0 mm | 0 m/s | 0 W/m² | - |
| 1778031731 | 26.11° C | 83% | 1006.5 hPa | 0 mm | 0.45 m/s, 34° | 0 W/m² | - |
| 1778031126 | 26.67° C | 82% | 1006.5 hPa | 0 mm | 0 m/s | 0 W/m² | - |
| 1778030525 | 26.67° C | 82% | 1006.4 hPa | 0 mm | 0 m/s | 0 W/m² | - |
| 1778029923 | 26.67° C | 81% | 1006.3 hPa | 0 mm | 0 m/s | 0 W/m² | - |
* Rain latest hour (hover to see other rain measurements)
** Current wind speed in m/s (hover to see current wind gust speed)